Location: Caltech
(34.1382°N, 118.1253°W)
Time: 22:49:01
(UTC-07:00)

Iridium 49 - Visible Passes

Search period start: 29 March 2015 00:00
Search period end: 08 April 2015 00:00
Orbit: 776 x 779 km, 86.4° (Epoch: 29 March)

Date Brightness Start Highest point End Pass type
(mag) Time Alt. Az. Time Alt. Az. Time Alt. Az.
29 Mar 6.9 04:17:25 41° N 04:17:25 41° N 04:20:47 10° N visible
30 Mar 7.6 03:44:12 31° NNE 03:44:12 31° NNE 03:47:07 10° NNE visible
30 Mar 7.9 05:24:41 14° WNW 05:24:41 14° WNW 05:26:04 10° NW visible
31 Mar 8.4 03:10:57 19° NE 03:10:57 19° NE 03:12:58 10° NNE visible
31 Mar 7.5 04:51:26 22° NW 04:51:26 22° NW 04:53:49 10° NNW visible
01 Apr 9.0 02:37:42 10° NE 02:37:42 10° NE 02:37:50 10° NE visible
01 Apr 7.4 04:18:10 29° NNW 04:18:10 29° NNW 04:20:48 10° N visible
02 Apr 7.7 03:44:53 28° N 03:44:53 28° N 03:47:21 10° N visible
03 Apr 8.3 03:11:35 21° NNE 03:11:35 21° NNE 03:13:30 10° NNE visible
03 Apr 8.0 04:52:04 14° NW 04:52:04 14° NW 04:53:17 10° NNW visible
04 Apr 8.8 02:38:16 13° NE 02:38:16 13° NE 02:39:06 10° NE visible
04 Apr 7.8 04:18:45 21° NNW 04:18:45 21° NNW 04:20:39 10° NNW visible
05 Apr 7.8 03:45:25 24° N 03:45:25 24° N 03:47:26 10° N visible
06 Apr 8.2 03:12:04 21° NNE 03:12:04 21° NNE 03:13:50 10° NNE visible
07 Apr 8.7 02:38:42 15° NNE 02:38:42 15° NNE 02:39:48 10° NNE visible
07 Apr 8.1 04:19:11 15° NW 04:19:11 15° NW 04:20:17 10° NNW visible
